Location: Bothwell
(42.3833°S, 147.0000°E)
Time: 04:33:25
(UTC+11:00)

MOZHAYETS 4 - Pass Details

Date: 04 October 2022
Orbit: 659 x 678 km, 98.2° (Epoch: 30 November)

Event Time Altitude Azimuth Distance (km) Brightness Sun altitude
Rises 04:39:09 0° 168° (SSE) 3,044 11.7 -22.2°
Reaches altitude 10° 04:41:24 10° 168° (SSE) 2,125 10.8 -21.9°
Maximum altitude 04:46:03 83° 255° (WSW) 689 7.6 -21.1°
Enters shadow 04:47:40 41° 339° (NNW) 977 8.2 -20.8°
